This demonstration page uses our WeatherBlox Daily Observations layout. Learn more.

Left ArrowRight Arrow

Hourly Observations for June 1, 2018

Temp ( °F °C ) Dew Point ( °F °C ) Humidity (%) Winds ( mph kmh ) Pressure ( in mb ) Visibility ( mi km ) Precip ( " mm )
12:54 am 00:54 Clear 75 23.9 60 15.6 60 60 S 3 6 29.78 1008 10 16 0.00 0.00
1:54 am 01:54 Clear 73 22.8 61 16.1 66 66 Calm 29.78 1009 10 16 0.00 0.00
2:54 am 02:54 Clear 72 22.2 60 15.6 66 66 Calm 29.78 1009 10 16 0.00 0.00
3:54 am 03:54 Clear 67 19.4 61 16.1 81 81 S 3 6 29.79 1009 10 16 0.00 0.00
4:54 am 04:54 Clear 69 20.6 61 16.1 76 76 Calm 29.80 1009 10 16 0.00 0.00
5:54 am 05:54 Clear 65 18.3 61 16.1 87 87 Calm 29.81 1009 10 16 0.00 0.00
6:54 am 06:54 Sunny 68 20 63 17.2 84 84 Calm 29.83 1010 10 16 0.00 0.00
7:54 am 07:54 Sunny 72 22.2 64 17.8 76 76 S 3 6 29.83 1010 10 16 0.00 0.00
8:54 am 08:54 Sunny 77 25 66 18.9 69 69 SE 3 6 29.83 1010 10 16 0.00 0.00
9:54 am 09:54 Sunny 83 28.3 68 20 61 61 SSE 7 11 29.82 1010 10 16 0.00 0.00
10:54 am 10:54 Sunny 87 30.6 65 18.3 48 48 S 15 24 29.82 1010 10 16 0.00 0.00
11:54 am 11:54 Sunny 89 31.7 64 17.8 43 43 S 17 28 29.81 1010 10 16 0.00 0.00
12:54 pm 12:54 Sunny 91 32.8 63 17.2 39 39 SSE 15 24 29.80 1009 10 16 0.00 0.00
1:54 pm 13:54 Sunny 92 33.3 61 16.1 36 36 S 17 28 29.78 1008 10 16 0.00 0.00
2:54 pm 14:54 Sunny 91 32.8 58 14.4 33 33 SSE 20 31 29.75 1008 10 16 0.00 0.00
3:54 pm 15:54 Sunny 92 33.3 58 14.4 32 32 SE 22 35 29.73 1007 10 16 0.00 0.00
4:54 pm 16:54 Sunny 93 33.9 59 15 32 32 SE 21 33 29.70 1006 10 16 0.00 0.00
5:54 pm 17:54 Sunny 92 33.3 59 15 33 33 SE 21 33 29.68 1005 10 16 0.00 0.00
6:54 pm 18:54 Sunny 91 32.8 60 15.6 35 35 SSE 20 31 29.66 1004 10 16 0.00 0.00
7:54 pm 19:54 Sunny 89 31.7 62 16.7 41 41 SSE 16 26 29.65 1004 10 16 0.00 0.00
8:54 pm 20:54 Mostly Cloudy 88 31.1 64 17.8 45 45 SSE 14 22 29.68 1005 10 16 0.00 0.00
9:54 pm 21:54 Partly Cloudy 87 30.6 66 18.9 50 50 SSE 22 35 29.68 1005 10 16 0.00 0.00
10:54 pm 22:54 Clear 85 29.4 68 20 57 57 SSE 13 20 29.70 1006 10 16 0.00 0.00
11:54 pm 23:54 Cloudy 74 23.3 58 14.4 57 57 N 21 33 29.76 1008 10 16 0.00 0.00

Powered by AerisWeather